This is the latest recevied weather packets stored in our database for station/object WV5G-13. If no packets are shown the sender has not sent any weather packets the latest 10 day(s).
| Time | Temp. | Humidity | Pressure | Rain* | Wind** | Luminosity | Snow |
|---|---|---|---|---|---|---|---|
| 1777862771 | 18.89° C | 35% | 1009.6 hPa | 0 mm | - | 0 W/m² | - |
| 1777862467 | 19.44° C | 35% | 1009.5 hPa | 0 mm | - | 0 W/m² | - |
| 1777862164 | 19.44° C | 34% | 1009.6 hPa | 0 mm | - | 0 W/m² | - |
| 1777861860 | 20° C | 34% | 1009.6 hPa | 0 mm | - | 0 W/m² | - |
| 1777861556 | 20° C | 34% | 1009.6 hPa | 0 mm | - | 0 W/m² | - |
| 1777861252 | 20° C | 33% | 1009.5 hPa | 0 mm | - | 0 W/m² | - |
| 1777860950 | 20.56° C | 33% | 1009.3 hPa | 0 mm | - | 0 W/m² | - |
| 1777860647 | 20.56° C | 32% | 1009.3 hPa | 0 mm | - | 0 W/m² | - |
| 1777860344 | 21.11° C | 32% | 1009.3 hPa | 0 mm | - | 0 W/m² | - |
| 1777860040 | 21.11° C | 32% | 1009.2 hPa | 0 mm | - | 0 W/m² | - |
| 1777859737 | 21.67° C | 31% | 1009.3 hPa | 0 mm | - | 0 W/m² | - |
| 1777859432 | 21.67° C | 31% | 1009.3 hPa | 0 mm | - | 0 W/m² | - |
| 1777859129 | 22.22° C | 30% | 1009.3 hPa | 0 mm | - | 1 W/m² | - |
| 1777858826 | 22.22° C | 30% | 1009 hPa | 0 mm | - | 2 W/m² | - |
| 1777858524 | 22.78° C | 30% | 1009 hPa | 0 mm | - | 3 W/m² | - |
| 1777858221 | 22.78° C | 29% | 1009 hPa | 0 mm | - | 6 W/m² | - |
| 1777857918 | 22.78° C | 29% | 1009.2 hPa | 0 mm | - | 11 W/m² | - |
| 1777857616 | 23.33° C | 29% | 1009.1 hPa | 0 mm | - | 15 W/m² | - |
| 1777857312 | 23.33° C | 29% | 1009.2 hPa | 0 mm | - | 20 W/m² | - |
| 1777857008 | 23.33° C | 28% | 1009.3 hPa | 0 mm | - | 25 W/m² | - |
| 1777856704 | 23.33° C | 27% | 1009.2 hPa | 0 mm | - | 30 W/m² | - |
| 1777856400 | 23.89° C | 27% | 1009.2 hPa | 0 mm | - | 35 W/m² | - |
| 1777856097 | 23.89° C | 26% | 1009 hPa | 0 mm | - | 41 W/m² | - |
| 1777855795 | 23.89° C | 26% | 1009.2 hPa | 0 mm | - | 46 W/m² | - |
| 1777855492 | 23.89° C | 27% | 1009.2 hPa | 0 mm | - | 55 W/m² | - |
* Rain latest hour (hover to see other rain measurements)
** Current wind speed in m/s (hover to see current wind gust speed)